Time,TemperatureF,DewpointF,PressureIn,WindDirection,WindDirectionDegrees,WindSpeedMPH,WindSpeedGustMPH,Humidity,HourlyPrecipIn,Conditions,Clouds,dailyrainin,SoftwareType,DateUTC
2013-04-13 00:03:00,39.1,37.2,29.62,West,281,18.4,18.4,93,0.07,-RA,,0.01,WeatherDisplay:10.37,2013-04-13 07:03:00,
2013-04-13 00:08:00,39.0,36.9,29.62,WNW,299,11.5,11.5,92,0.07,-RA,,0.01,WeatherDisplay:10.37,2013-04-13 07:08:00,
2013-04-13 00:13:00,38.8,36.7,29.62,WNW,284,4.6,4.6,92,0.07,-RA,,0.02,WeatherDisplay:10.37,2013-04-13 07:13:00,
2013-04-13 00:19:00,38.6,36.5,29.62,WNW,290,6.9,6.9,92,0.07,-RA,,0.02,WeatherDisplay:10.37,2013-04-13 07:19:00,
2013-04-13 00:24:00,38.5,36.7,29.62,NW,310,6.9,6.9,93,0.07,-RA,,0.03,WeatherDisplay:10.37,2013-04-13 07:24:00,
2013-04-13 00:29:00,38.4,36.6,29.63,WNW,284,10.0,10.0,93,0.08,-RA,,0.04,WeatherDisplay:10.37,2013-04-13 07:29:00,
2013-04-13 00:34:00,38.4,36.6,29.63,WNW,283,10.4,10.4,93,0.07,-RA,,0.04,WeatherDisplay:10.37,2013-04-13 07:34:00,
2013-04-13 00:39:00,38.4,36.6,29.63,WNW,283,3.5,3.5,93,0.07,-RA,,0.05,WeatherDisplay:10.37,2013-04-13 07:39:00,
2013-04-13 00:45:00,38.3,36.5,29.63,NW,304,2.3,2.3,93,0.08,-RA,,0.06,WeatherDisplay:10.37,2013-04-13 07:45:00,
2013-04-13 00:50:00,38.1,36.3,29.63,NW,304,2.3,2.3,93,0.07,-RA,,0.06,WeatherDisplay:10.37,2013-04-13 07:50:00,
2013-04-13 00:55:00,38.0,36.2,29.63,NW,304,0.0,0.0,93,0.08,-RA,,0.07,WeatherDisplay:10.37,2013-04-13 07:55:00,
2013-04-13 01:00:00,37.9,36.1,29.62,NW,304,3.5,3.5,93,0.07,-RA,,0.08,WeatherDisplay:10.37,2013-04-13 08:00:00,
2013-04-13 01:06:00,37.9,36.1,29.62,WNW,296,0.0,0.0,93,0.07,-RA,,0.08,WeatherDisplay:10.37,2013-04-13 08:06:00,
2013-04-13 01:12:00,37.9,36.3,29.62,WNW,299,2.3,2.3,94,0.07,-RA,,0.09,WeatherDisplay:10.37,2013-04-13 08:12:00,
2013-04-13 01:17:00,37.9,36.3,29.62,WNW,299,0.0,0.0,94,0.07,-RA,,0.09,WeatherDisplay:10.37,2013-04-13 08:17:00,
2013-04-13 01:22:00,37.8,36.2,29.62,WNW,290,3.5,3.5,94,0.07,-RA,,0.10,WeatherDisplay:10.37,2013-04-13 08:22:00,
2013-04-13 01:27:00,37.7,35.9,29.62,WNW,290,3.5,3.5,93,0.06,-RA,,0.10,WeatherDisplay:10.37,2013-04-13 08:27:00,
2013-04-13 01:32:00,37.5,35.7,29.61,WNW,285,5.8,5.8,93,0.07,-RA,,0.11,WeatherDisplay:10.37,2013-04-13 08:32:00,
2013-04-13 01:37:00,37.3,35.5,29.62,WNW,282,6.0,6.0,93,0.07,-RA,,0.12,WeatherDisplay:10.37,2013-04-13 08:37:00,
2013-04-13 01:43:00,37.4,35.8,29.62,West,277,11.5,11.5,94,0.07,-RA,,0.12,WeatherDisplay:10.37,2013-04-13 08:43:00,
2013-04-13 01:48:00,37.6,36.0,29.61,West,261,9.2,9.2,94,0.07,-RA,,0.13,WeatherDisplay:10.37,2013-04-13 08:48:00,
2013-04-13 01:54:00,37.7,36.1,29.61,West,272,7.0,7.0,94,0.08,-RA,,0.14,WeatherDisplay:10.37,2013-04-13 08:54:00,
2013-04-13 01:59:00,37.7,36.1,29.60,West,272,5.8,5.8,94,0.07,-RA,,0.14,WeatherDisplay:10.37,2013-04-13 08:59:00,
2013-04-13 02:05:00,37.7,36.1,29.60,West,263,6.9,6.9,94,0.07,-RA,,0.15,WeatherDisplay:10.37,2013-04-13 09:05:00,
2013-04-13 02:10:00,37.7,36.1,29.60,WSW,244,9.2,9.2,94,0.07,-RA,,0.16,WeatherDisplay:10.37,2013-04-13 09:10:00,
2013-04-13 02:15:00,37.9,36.3,29.60,WSW,241,9.2,9.2,94,0.07,-RA,,0.16,WeatherDisplay:10.37,2013-04-13 09:15:00,
2013-04-13 02:20:00,38.0,36.4,29.59,West,259,11.5,11.5,94,0.06,-RA,,0.17,WeatherDisplay:10.37,2013-04-13 09:20:00,
2013-04-13 02:26:00,38.2,36.4,29.59,WSW,257,15.0,15.0,93,0.07,-RA,,0.17,WeatherDisplay:10.37,2013-04-13 09:26:00,
2013-04-13 02:32:00,38.4,36.0,29.59,WSW,253,16.1,16.1,91,0.07,-RA,,0.18,WeatherDisplay:10.37,2013-04-13 09:32:00,
2013-04-13 02:37:00,38.4,36.0,29.59,West,271,19.6,19.6,91,0.06,-RA,,0.18,WeatherDisplay:10.37,2013-04-13 09:37:00,
2013-04-13 02:42:00,38.3,35.6,29.59,West,271,18.4,18.4,90,0.07,-RA,,0.19,WeatherDisplay:10.37,2013-04-13 09:42:00,
2013-04-13 02:48:00,38.1,35.4,29.59,West,269,16.0,16.0,90,0.06,-RA,,0.19,WeatherDisplay:10.37,2013-04-13 09:48:00,
2013-04-13 02:52:00,38.0,35.3,29.60,West,270,15.0,15.0,90,0.07,-RA,,0.20,WeatherDisplay:10.37,2013-04-13 09:52:00,
2013-04-13 02:58:00,37.9,35.5,29.59,WNW,286,9.2,9.2,91,0.06,-RA,,0.20,WeatherDisplay:10.37,2013-04-13 09:58:00,
2013-04-13 03:04:00,37.6,35.2,29.59,West,273,16.1,16.1,91,0.06,RA,,0.21,WeatherDisplay:10.37,2013-04-13 10:04:00,
2013-04-13 03:09:00,37.5,35.4,29.60,West,274,13.8,13.8,92,0.06,RA,,0.21,WeatherDisplay:10.37,2013-04-13 10:09:00,
2013-04-13 03:14:00,37.6,35.2,29.59,West,267,12.7,12.7,91,0.06,RA,,0.22,WeatherDisplay:10.37,2013-04-13 10:14:00,
2013-04-13 03:19:00,37.5,35.1,29.59,West,262,15.0,15.0,91,0.06,RA,,0.22,WeatherDisplay:10.37,2013-04-13 10:19:00,
2013-04-13 03:24:00,37.5,35.1,29.59,West,277,13.8,13.8,91,0.05,OVC,,0.22,WeatherDisplay:10.37,2013-04-13 10:24:00,
2013-04-13 03:29:00,37.5,35.1,29.59,West,273,16.1,16.1,91,0.05,RA,,0.23,WeatherDisplay:10.37,2013-04-13 10:29:00,
2013-04-13 03:35:00,37.5,34.6,29.59,West,268,15.0,15.0,89,0.05,RA,,0.23,WeatherDisplay:10.37,2013-04-13 10:35:00,
2013-04-13 03:40:00,37.4,34.2,29.59,West,267,18.4,18.4,88,0.05,RA,,0.24,WeatherDisplay:10.37,2013-04-13 10:40:00,
2013-04-13 03:45:00,37.5,34.0,29.59,West,274,19.6,19.6,87,0.05,RA,,0.24,WeatherDisplay:10.37,2013-04-13 10:45:00,
2013-04-13 03:51:00,37.5,33.7,29.59,WSW,256,19.6,19.6,86,0.04,OVC,,0.24,WeatherDisplay:10.37,2013-04-13 10:51:00,
2013-04-13 03:56:00,37.4,33.3,29.59,WSW,251,16.1,17.6,85,0.05,RA,,0.25,WeatherDisplay:10.37,2013-04-13 10:56:00,
2013-04-13 04:01:00,37.4,33.0,29.60,West,271,19.6,19.6,84,0.05,RA,,0.25,WeatherDisplay:10.37,2013-04-13 11:01:00,
2013-04-13 04:06:00,37.5,32.8,29.60,West,281,19.6,19.6,83,0.04,CLR,,0.25,WeatherDisplay:10.37,2013-04-13 11:06:00,
2013-04-13 04:11:00,37.6,32.3,29.60,West,265,23.0,23.0,81,0.05,RA,,0.26,WeatherDisplay:10.37,2013-04-13 11:11:00,
2013-04-13 04:16:00,37.4,32.1,29.61,West,273,19.6,19.6,81,0.04,RA,,0.26,WeatherDisplay:10.37,2013-04-13 11:16:00,
2013-04-13 04:22:00,37.5,31.9,29.60,West,265,18.4,18.4,80,0.04,CLR,,0.26,WeatherDisplay:10.37,2013-04-13 11:22:00,
2013-04-13 04:27:00,37.6,31.4,29.60,West,267,21.0,21.0,78,0.04,CLR,,0.26,WeatherDisplay:10.37,2013-04-13 11:27:00,
2013-04-13 04:32:00,37.8,31.2,29.60,West,273,25.3,25.3,77,0.04,RA,,0.27,WeatherDisplay:10.37,2013-04-13 11:32:00,
2013-04-13 04:37:00,37.8,30.9,29.60,West,264,24.2,24.2,76,0.04,RA,,0.27,WeatherDisplay:10.37,2013-04-13 11:37:00,
2013-04-13 04:43:00,37.6,31.0,29.60,West,269,19.6,19.6,77,0.03,CLR,,0.27,WeatherDisplay:10.37,2013-04-13 11:43:00,
2013-04-13 04:48:00,37.4,30.8,29.60,West,275,21.9,21.9,77,0.04,RA,,0.28,WeatherDisplay:10.37,2013-04-13 11:48:00,
2013-04-13 04:53:00,37.3,30.4,29.60,WNW,283,20.7,20.7,76,0.04,RA,,0.28,WeatherDisplay:10.37,2013-04-13 11:53:00,
2013-04-13 04:58:00,37.3,30.7,29.60,West,277,19.6,19.6,77,0.03,CLR,,0.28,WeatherDisplay:10.37,2013-04-13 11:58:00,
2013-04-13 05:03:00,37.6,31.0,29.59,West,272,21.9,21.9,77,0.03,SCT,,0.28,WeatherDisplay:10.37,2013-04-13 12:03:00,
2013-04-13 05:08:00,37.4,30.8,29.60,WNW,288,26.5,26.5,77,0.03,SCT,,0.28,WeatherDisplay:10.37,2013-04-13 12:08:00,
2013-04-13 05:13:00,37.4,30.8,29.61,WNW,291,23.0,23.0,77,0.02,SCT,,0.28,WeatherDisplay:10.37,2013-04-13 12:13:00,
2013-04-13 05:19:00,37.1,31.2,29.61,NNW,346,6.9,6.9,79,0.02,SCT,,0.28,WeatherDisplay:10.37,2013-04-13 12:19:00,
2013-04-13 05:24:00,36.7,31.4,29.61,NW,308,5.0,5.0,81,0.02,SCT,,0.28,WeatherDisplay:10.37,2013-04-13 12:24:00,
2013-04-13 05:29:00,36.1,31.4,29.61,NNW,330,4.6,4.6,83,0.02,SCT,,0.28,WeatherDisplay:10.37,2013-04-13 12:29:00,
2013-04-13 05:34:00,35.6,31.2,29.61,West,281,6.9,6.9,84,0.01,SCT,,0.28,WeatherDisplay:10.37,2013-04-13 12:34:00,
2013-04-13 05:39:00,35.2,31.1,29.62,NW,314,11.5,11.5,85,0.01,SCT,,0.28,WeatherDisplay:10.37,2013-04-13 12:39:00,
2013-04-13 05:44:00,34.7,30.7,29.62,NW,304,6.9,6.9,85,0.01,SCT,,0.28,WeatherDisplay:10.37,2013-04-13 12:44:00,
2013-04-13 05:49:00,34.4,29.8,29.61,WNW,292,12.7,12.7,83,0.00,SCT,,0.28,WeatherDisplay:10.37,2013-04-13 12:49:00,
2013-04-13 05:54:00,34.0,28.8,29.61,WNW,301,7.0,7.0,81,0.00,SCT,,0.28,WeatherDisplay:10.37,2013-04-13 12:54:00,
2013-04-13 05:59:00,33.6,27.8,29.62,NW,306,12.7,12.7,79,0.00,SCT,,0.28,WeatherDisplay:10.37,2013-04-13 12:59:00,
2013-04-13 06:04:00,33.4,27.3,29.64,WNW,293,11.5,11.5,78,0.00,BKN,,0.28,WeatherDisplay:10.37,2013-04-13 13:04:00,
2013-04-13 06:10:00,33.3,27.5,29.65,NW,309,11.5,11.5,79,0.00,BKN,,0.28,WeatherDisplay:10.37,2013-04-13 13:10:00,
2013-04-13 06:15:00,33.2,27.7,29.65,WNW,294,12.7,12.7,80,0.00,BKN,,0.28,WeatherDisplay:10.37,2013-04-13 13:15:00,
2013-04-13 06:20:00,33.1,27.9,29.65,WNW,294,11.0,11.0,81,0.00,BKN,,0.28,WeatherDisplay:10.37,2013-04-13 13:20:00,
2013-04-13 06:25:00,32.9,27.4,29.66,WNW,293,15.0,15.0,80,0.00,BKN,,0.28,WeatherDisplay:10.37,2013-04-13 13:25:00,
2013-04-13 06:30:00,32.8,27.3,29.66,WNW,296,11.5,11.5,80,0.00,BKN,,0.28,WeatherDisplay:10.37,2013-04-13 13:30:00,
2013-04-13 06:35:00,32.8,26.7,29.67,WNW,294,23.0,23.0,78,0.00,BKN,,0.28,WeatherDisplay:10.37,2013-04-13 13:35:00,
2013-04-13 06:41:00,32.9,26.5,29.67,WNW,296,17.3,17.3,77,0.00,BKN,,0.28,WeatherDisplay:10.37,2013-04-13 13:41:00,
2013-04-13 06:46:00,33.0,25.3,29.67,WNW,294,24.2,24.2,73,0.00,BKN,,0.28,WeatherDisplay:10.37,2013-04-13 13:46:00,
2013-04-13 06:51:00,32.9,24.5,29.67,WNW,294,23.0,23.0,71,0.00,BKN,,0.28,WeatherDisplay:10.37,2013-04-13 13:51:00,
2013-04-13 06:57:00,32.6,24.6,29.67,WNW,296,15.0,15.0,72,0.00,BKN,,0.28,WeatherDisplay:10.37,2013-04-13 13:57:00,
2013-04-13 07:02:00,32.5,24.5,29.67,WNW,288,15.0,15.0,72,0.00,OVC,,0.28,WeatherDisplay:10.37,2013-04-13 14:02:00,
2013-04-13 07:07:00,32.7,25.3,29.67,WNW,291,12.7,12.7,74,0.00,OVC,,0.28,WeatherDisplay:10.37,2013-04-13 14:07:00,
2013-04-13 07:12:00,32.8,25.4,29.68,NW,306,11.5,11.5,74,0.00,OVC,,0.28,WeatherDisplay:10.37,2013-04-13 14:12:00,
2013-04-13 07:18:00,32.7,25.6,29.68,WNW,295,11.5,11.5,75,0.00,OVC,,0.28,WeatherDisplay:10.37,2013-04-13 14:18:00,
2013-04-13 07:23:00,32.9,25.8,29.69,WNW,292,13.8,13.8,75,0.00,OVC,,0.28,WeatherDisplay:10.37,2013-04-13 14:23:00,
2013-04-13 07:28:00,32.9,25.8,29.69,WNW,301,8.1,8.1,75,0.00,OVC,,0.28,WeatherDisplay:10.37,2013-04-13 14:28:00,
2013-04-13 07:33:00,32.7,25.3,29.70,West,278,17.3,17.3,74,0.00,OVC,,0.28,WeatherDisplay:10.37,2013-04-13 14:33:00,
2013-04-13 07:38:00,32.6,25.2,29.70,WNW,287,12.7,12.7,74,0.00,OVC,,0.28,WeatherDisplay:10.37,2013-04-13 14:38:00,
2013-04-13 07:43:00,32.5,25.5,29.70,WNW,292,10.4,10.4,75,0.00,OVC,,0.28,WeatherDisplay:10.37,2013-04-13 14:43:00,
2013-04-13 07:48:00,32.4,25.0,29.71,WNW,288,12.0,12.0,74,0.00,OVC,,0.28,WeatherDisplay:10.37,2013-04-13 14:48:00,
2013-04-13 07:54:00,32.2,25.2,29.72,WNW,285,10.0,10.0,75,0.00,OVC,,0.28,WeatherDisplay:10.37,2013-04-13 14:54:00,
2013-04-13 07:59:00,32.0,24.6,29.73,WNW,288,13.8,13.8,74,0.00,OVC,,0.28,WeatherDisplay:10.37,2013-04-13 14:59:00,
2013-04-13 08:04:00,31.9,24.9,29.73,WNW,292,4.6,4.6,75,0.00,FEW,,0.28,WeatherDisplay:10.37,2013-04-13 15:04:00,
2013-04-13 08:09:00,31.9,25.2,29.74,WNW,298,4.6,4.6,76,0.00,FEW,,0.28,WeatherDisplay:10.37,2013-04-13 15:09:00,
2013-04-13 08:15:00,31.9,24.9,29.73,West,275,15.0,15.0,75,0.00,FEW,,0.28,WeatherDisplay:10.37,2013-04-13 15:15:00,
2013-04-13 08:20:00,32.3,23.9,29.73,WNW,292,28.8,28.8,71,0.00,FEW,,0.28,WeatherDisplay:10.37,2013-04-13 15:20:00,
2013-04-13 08:25:00,33.2,26.1,29.73,NW,306,12.7,12.7,75,0.00,FEW,,0.28,WeatherDisplay:10.37,2013-04-13 15:25:00,
2013-04-13 08:31:00,33.7,25.3,29.72,WNW,287,12.0,12.3,71,0.00,FEW,,0.28,WeatherDisplay:10.37,2013-04-13 15:31:00,
2013-04-13 08:36:00,34.1,25.7,29.73,WNW,298,16.1,16.1,71,0.00,FEW,,0.28,WeatherDisplay:10.37,2013-04-13 15:36:00,
2013-04-13 08:42:00,34.4,26.6,29.73,WNW,293,11.5,11.5,73,0.00,FEW,,0.28,WeatherDisplay:10.37,2013-04-13 15:42:00,
2013-04-13 08:47:00,34.4,26.3,29.73,WNW,290,11.5,11.5,72,0.00,FEW,,0.28,WeatherDisplay:10.37,2013-04-13 15:47:00,
2013-04-13 08:52:00,34.4,26.6,29.73,NW,304,10.4,10.4,73,0.00,FEW,,0.28,WeatherDisplay:10.37,2013-04-13 15:52:00,
2013-04-13 08:57:00,34.4,27.0,29.73,WNW,294,14.0,14.0,74,0.00,FEW,,0.28,WeatherDisplay:10.37,2013-04-13 15:57:00,
2013-04-13 09:02:00,34.0,26.9,29.74,WNW,295,11.5,11.5,75,0.00,FEW,,0.28,WeatherDisplay:10.37,2013-04-13 16:02:00,
2013-04-13 09:07:00,33.8,27.4,29.73,WNW,293,11.5,11.5,77,0.00,FEW,,0.28,WeatherDisplay:10.37,2013-04-13 16:07:00,
2013-04-13 09:13:00,34.4,27.0,29.74,WNW,292,18.4,18.4,74,0.00,FEW,,0.28,WeatherDisplay:10.37,2013-04-13 16:13:00,
2013-04-13 09:19:00,35.1,28.0,29.73,WNW,288,15.0,15.0,75,0.00,FEW,,0.28,WeatherDisplay:10.37,2013-04-13 16:19:00,
2013-04-13 09:25:00,34.8,24.6,29.72,WNW,282,29.9,29.9,66,0.00,FEW,,0.28,WeatherDisplay:10.37,2013-04-13 16:25:00,
2013-04-13 09:30:00,34.8,25.7,29.73,WNW,292,26.5,26.5,69,0.00,FEW,,0.28,WeatherDisplay:10.37,2013-04-13 16:30:00,
2013-04-13 09:35:00,35.1,25.6,29.73,West,274,33.4,33.4,68,0.00,FEW,,0.28,WeatherDisplay:10.37,2013-04-13 16:35:00,
2013-04-13 09:40:00,34.8,25.7,29.74,WNW,283,19.0,19.0,69,0.00,FEW,,0.28,WeatherDisplay:10.37,2013-04-13 16:40:00,
2013-04-13 09:45:00,34.4,24.6,29.73,West,277,29.9,29.9,67,0.00,FEW,,0.28,WeatherDisplay:10.37,2013-04-13 16:45:00,
2013-04-13 09:50:00,34.4,25.6,29.75,WNW,287,17.3,17.3,70,0.00,FEW,,0.28,WeatherDisplay:10.37,2013-04-13 16:50:00,
2013-04-13 09:55:00,34.7,25.6,29.73,WNW,282,15.0,15.0,69,0.00,FEW,,0.28,WeatherDisplay:10.37,2013-04-13 16:55:00,
2013-04-13 10:01:00,34.4,25.3,29.74,WNW,296,18.4,18.4,69,0.00,BKN,,0.28,WeatherDisplay:10.37,2013-04-13 17:01:00,
2013-04-13 10:07:00,35.8,26.6,29.74,WNW,295,14.0,14.0,69,0.00,BKN,,0.28,WeatherDisplay:10.37,2013-04-13 17:07:00,
2013-04-13 10:13:00,36.4,26.8,29.74,West,279,24.2,24.2,68,0.00,BKN,,0.28,WeatherDisplay:10.37,2013-04-13 17:13:00,
2013-04-13 10:18:00,36.4,26.1,29.74,WNW,290,12.7,12.7,66,0.00,BKN,,0.28,WeatherDisplay:10.37,2013-04-13 17:18:00,
2013-04-13 10:23:00,35.9,24.5,29.74,WNW,293,26.5,26.5,63,0.00,BKN,,0.28,WeatherDisplay:10.37,2013-04-13 17:23:00,
2013-04-13 10:28:00,36.5,27.3,29.74,WNW,294,18.4,18.4,69,0.00,BKN,,0.28,WeatherDisplay:10.37,2013-04-13 17:28:00,
2013-04-13 10:34:00,36.9,25.1,29.74,NW,311,12.7,12.7,62,0.00,BKN,,0.28,WeatherDisplay:10.37,2013-04-13 17:34:00,
2013-04-13 10:39:00,36.2,25.2,29.74,WNW,285,15.0,15.0,64,0.00,BKN,,0.28,WeatherDisplay:10.37,2013-04-13 17:39:00,
2013-04-13 10:46:00,35.7,25.1,29.74,WNW,293,17.3,17.3,65,0.00,BKN,,0.28,WeatherDisplay:10.37,2013-04-13 17:46:00,
2013-04-13 10:51:00,36.4,25.4,29.75,WNW,292,19.6,19.6,64,0.00,BKN,,0.28,WeatherDisplay:10.37,2013-04-13 17:51:00,
2013-04-13 10:57:00,36.6,25.9,29.75,WNW,288,17.3,17.3,65,0.00,BKN,,0.28,WeatherDisplay:10.37,2013-04-13 17:57:00,
2013-04-13 11:02:00,36.9,27.0,29.74,WNW,296,23.0,23.0,67,0.00,OVC,,0.28,WeatherDisplay:10.37,2013-04-13 18:02:00,
2013-04-13 11:07:00,37.3,26.6,29.74,West,273,16.1,16.1,65,0.00,OVC,,0.28,WeatherDisplay:10.37,2013-04-13 18:07:00,
2013-04-13 11:12:00,37.3,27.0,29.74,WNW,286,17.0,17.0,66,0.00,OVC,,0.28,WeatherDisplay:10.37,2013-04-13 18:12:00,
2013-04-13 11:18:00,36.6,24.0,29.74,West,277,20.0,20.0,60,0.00,OVC,,0.28,WeatherDisplay:10.37,2013-04-13 18:18:00,
2013-04-13 11:23:00,36.6,24.4,29.74,WNW,298,26.5,26.5,61,0.00,OVC,,0.28,WeatherDisplay:10.37,2013-04-13 18:23:00,
2013-04-13 11:27:00,36.4,23.0,29.74,WNW,299,26.5,26.5,58,0.00,OVC,,0.28,WeatherDisplay:10.37,2013-04-13 18:27:00,
2013-04-13 11:32:00,35.4,22.9,29.75,West,281,32.0,32.0,60,0.00,OVC,,0.28,WeatherDisplay:10.37,2013-04-13 18:32:00,
2013-04-13 11:37:00,36.1,23.9,29.75,WNW,291,23.0,23.0,61,0.00,OVC,,0.28,WeatherDisplay:10.37,2013-04-13 18:37:00,
2013-04-13 11:42:00,36.4,25.4,29.75,West,279,33.4,33.4,64,0.00,OVC,,0.28,WeatherDisplay:10.37,2013-04-13 18:42:00,
2013-04-13 11:47:00,35.5,22.6,29.76,WNW,298,29.9,29.9,59,0.00,OVC,,0.28,WeatherDisplay:10.37,2013-04-13 18:47:00,
2013-04-13 11:52:00,36.5,25.1,29.76,WNW,292,21.9,21.9,63,0.00,OVC,,0.28,WeatherDisplay:10.37,2013-04-13 18:52:00,
2013-04-13 11:57:00,37.5,24.9,29.75,WNW,286,32.2,32.2,60,0.00,OVC,,0.28,WeatherDisplay:10.37,2013-04-13 18:57:00,
2013-04-13 12:02:00,36.8,23.0,29.76,West,260,32.2,32.2,57,0.00,BKN,,0.28,WeatherDisplay:10.37,2013-04-13 19:02:00,
2013-04-13 12:08:00,36.2,24.8,29.76,West,280,25.0,25.0,63,0.00,BKN,,0.28,WeatherDisplay:10.37,2013-04-13 19:08:00,
2013-04-13 12:13:00,36.8,25.0,29.76,WNW,294,17.3,17.3,62,0.00,BKN,,0.28,WeatherDisplay:10.37,2013-04-13 19:13:00,
2013-04-13 12:18:00,36.9,23.1,29.76,West,270,23.0,23.0,57,0.00,BKN,,0.28,WeatherDisplay:10.37,2013-04-13 19:18:00,
2013-04-13 12:23:00,36.2,23.6,29.77,WNW,300,12.7,12.7,60,0.00,BKN,,0.28,WeatherDisplay:10.37,2013-04-13 19:23:00,
2013-04-13 12:28:00,36.4,24.2,29.77,West,278,11.0,11.0,61,0.00,BKN,,0.28,WeatherDisplay:10.37,2013-04-13 19:28:00,
2013-04-13 12:33:00,36.4,23.4,29.77,NW,306,9.2,9.2,59,0.00,BKN,,0.28,WeatherDisplay:10.37,2013-04-13 19:33:00,
2013-04-13 12:38:00,36.0,23.4,29.77,West,279,25.3,25.3,60,0.00,BKN,,0.28,WeatherDisplay:10.37,2013-04-13 19:38:00,
2013-04-13 12:43:00,36.6,24.8,29.77,NW,319,12.7,12.7,62,0.00,BKN,,0.28,WeatherDisplay:10.37,2013-04-13 19:43:00,
2013-04-13 12:48:00,36.4,22.6,29.77,NW,312,9.2,9.2,57,0.00,BKN,,0.28,WeatherDisplay:10.37,2013-04-13 19:48:00,
2013-04-13 12:53:00,36.1,23.9,29.77,West,277,16.0,16.0,61,0.00,BKN,,0.28,WeatherDisplay:10.37,2013-04-13 19:53:00,
2013-04-13 12:58:00,35.8,22.0,29.77,NW,309,11.5,11.5,57,0.00,BKN,,0.28,WeatherDisplay:10.37,2013-04-13 19:58:00,
2013-04-13 13:03:00,36.3,22.9,29.77,WNW,293,14.0,14.0,58,0.00,BKN,,0.28,WeatherDisplay:10.37,2013-04-13 20:03:00,
2013-04-13 13:08:00,36.2,22.8,29.77,West,270,18.4,18.4,58,0.00,BKN,,0.28,WeatherDisplay:10.37,2013-04-13 20:08:00,
2013-04-13 13:13:00,36.5,23.9,29.77,WNW,284,11.5,11.5,60,0.00,BKN,,0.28,WeatherDisplay:10.37,2013-04-13 20:13:00,
2013-04-13 13:18:00,36.6,24.0,29.77,WNW,291,19.6,19.6,60,0.00,BKN,,0.28,WeatherDisplay:10.37,2013-04-13 20:18:00,
2013-04-13 13:23:00,36.5,23.1,29.77,WNW,284,26.5,26.5,58,0.00,BKN,,0.28,WeatherDisplay:10.37,2013-04-13 20:23:00,
2013-04-13 13:28:00,36.0,23.0,29.77,West,277,28.0,28.0,59,0.00,BKN,,0.28,WeatherDisplay:10.37,2013-04-13 20:28:00,
2013-04-13 13:34:00,36.2,24.0,29.77,WNW,293,17.3,17.3,61,0.00,BKN,,0.28,WeatherDisplay:10.37,2013-04-13 20:34:00,
2013-04-13 13:39:00,37.8,24.7,29.76,WNW,294,26.5,26.5,59,0.00,BKN,,0.28,WeatherDisplay:10.37,2013-04-13 20:39:00,
2013-04-13 13:44:00,37.1,23.7,29.77,WNW,295,11.5,11.5,58,0.00,BKN,,0.28,WeatherDisplay:10.37,2013-04-13 20:44:00,
2013-04-13 13:49:00,37.6,23.3,29.76,West,275,19.6,19.6,56,0.00,BKN,,0.28,WeatherDisplay:10.37,2013-04-13 20:49:00,
2013-04-13 13:54:00,36.5,23.1,29.77,WNW,284,26.5,26.5,58,0.00,BKN,,0.28,WeatherDisplay:10.37,2013-04-13 20:54:00,
2013-04-13 13:59:00,36.4,25.0,29.78,WNW,288,26.5,26.5,63,0.00,BKN,,0.28,WeatherDisplay:10.37,2013-04-13 20:59:00,
2013-04-13 14:04:00,37.6,23.3,29.77,WNW,288,31.1,31.1,56,0.00,OVC,,0.28,WeatherDisplay:10.37,2013-04-13 21:04:00,
2013-04-13 14:09:00,37.9,24.4,29.77,West,273,26.5,26.5,58,0.00,OVC,,0.28,WeatherDisplay:10.37,2013-04-13 21:09:00,
2013-04-13 14:14:00,37.8,24.3,29.77,WNW,291,18.4,18.4,58,0.00,OVC,,0.28,WeatherDisplay:10.37,2013-04-13 21:14:00,
2013-04-13 14:19:00,38.3,25.2,29.77,WNW,291,26.5,26.5,59,0.00,OVC,,0.28,WeatherDisplay:10.37,2013-04-13 21:19:00,
2013-04-13 14:24:00,37.5,23.6,29.77,West,273,24.2,24.2,57,0.00,OVC,,0.28,WeatherDisplay:10.37,2013-04-13 21:24:00,
2013-04-13 14:29:00,37.3,23.0,29.78,WNW,302,19.6,19.6,56,0.00,OVC,,0.28,WeatherDisplay:10.37,2013-04-13 21:29:00,
2013-04-13 14:34:00,36.9,23.5,29.78,West,269,28.8,28.8,58,0.00,OVC,,0.28,WeatherDisplay:10.37,2013-04-13 21:34:00,
2013-04-13 14:39:00,36.5,24.3,29.78,WNW,289,10.4,10.4,61,0.00,OVC,,0.28,WeatherDisplay:10.37,2013-04-13 21:39:00,
2013-04-13 14:44:00,37.3,25.8,29.78,WNW,301,11.5,11.5,63,0.00,OVC,,0.28,WeatherDisplay:10.37,2013-04-13 21:44:00,
2013-04-13 14:49:00,37.3,25.8,29.79,NNW,340,11.5,11.5,63,0.00,OVC,,0.28,WeatherDisplay:10.37,2013-04-13 21:49:00,
2013-04-13 14:54:00,36.2,25.9,29.79,WNW,295,6.9,6.9,66,0.00,OVC,,0.28,WeatherDisplay:10.37,2013-04-13 21:54:00,
2013-04-13 14:59:00,36.2,24.0,29.79,WNW,288,19.6,19.6,61,0.00,OVC,,0.28,WeatherDisplay:10.37,2013-04-13 21:59:00,
2013-04-13 15:04:00,36.7,24.1,29.79,West,273,31.1,31.1,60,0.00,BKN,,0.28,WeatherDisplay:10.37,2013-04-13 22:04:00,
2013-04-13 15:09:00,36.8,23.8,29.78,West,275,29.9,29.9,59,0.00,BKN,,0.28,WeatherDisplay:10.37,2013-04-13 22:09:00,
2013-04-13 15:14:00,36.9,22.7,29.78,WNW,284,19.6,19.6,56,0.00,BKN,,0.28,WeatherDisplay:10.37,2013-04-13 22:14:00,
2013-04-13 15:19:00,37.9,24.4,29.78,WNW,283,25.3,25.3,58,0.00,BKN,,0.28,WeatherDisplay:10.37,2013-04-13 22:19:00,
2013-04-13 15:24:00,38.5,24.1,29.77,West,279,29.9,29.9,56,0.00,BKN,,0.28,WeatherDisplay:10.37,2013-04-13 22:24:00,
2013-04-13 15:29:00,38.7,25.2,29.78,West,271,19.6,19.6,58,0.00,BKN,,0.28,WeatherDisplay:10.37,2013-04-13 22:29:00,
2013-04-13 15:34:00,38.3,24.8,29.79,WNW,287,29.9,29.9,58,0.00,BKN,,0.28,WeatherDisplay:10.37,2013-04-13 22:34:00,
2013-04-13 15:39:00,38.0,24.1,29.79,WNW,296,25.3,25.3,57,0.00,BKN,,0.28,WeatherDisplay:10.37,2013-04-13 22:39:00,
2013-04-13 15:44:00,37.8,25.5,29.79,WNW,290,13.8,13.8,61,0.00,BKN,,0.28,WeatherDisplay:10.37,2013-04-13 22:44:00,
2013-04-13 15:49:00,37.7,24.2,29.79,WNW,298,11.5,11.5,58,0.00,BKN,,0.28,WeatherDisplay:10.37,2013-04-13 22:49:00,
2013-04-13 15:54:00,38.0,25.7,29.78,WNW,287,7.0,7.0,61,0.00,BKN,,0.28,WeatherDisplay:10.37,2013-04-13 22:54:00,
2013-04-13 15:59:00,38.1,24.2,29.79,NW,307,19.6,19.6,57,0.00,BKN,,0.28,WeatherDisplay:10.37,2013-04-13 22:59:00,
2013-04-13 16:04:00,37.8,23.9,29.79,West,278,15.0,15.0,57,0.00,CLR,,0.28,WeatherDisplay:10.37,2013-04-13 23:04:00,
2013-04-13 16:09:00,37.7,23.8,29.79,WNW,284,26.0,26.0,57,0.00,CLR,,0.28,WeatherDisplay:10.37,2013-04-13 23:09:00,
2013-04-13 16:14:00,37.8,24.3,29.79,WNW,290,32.2,32.2,58,0.00,CLR,,0.28,WeatherDisplay:10.37,2013-04-13 23:14:00,
2013-04-13 16:19:00,37.9,25.2,29.78,WNW,287,19.6,19.6,60,0.00,CLR,,0.28,WeatherDisplay:10.37,2013-04-13 23:19:00,
2013-04-13 16:24:00,38.3,25.2,29.79,WNW,282,20.7,20.7,59,0.00,CLR,,0.28,WeatherDisplay:10.37,2013-04-13 23:24:00,
2013-04-13 16:29:00,39.1,25.6,29.78,WNW,288,28.8,28.8,58,0.00,CLR,,0.28,WeatherDisplay:10.37,2013-04-13 23:29:00,
2013-04-13 16:34:00,38.8,25.3,29.78,WNW,288,17.3,17.3,58,0.00,CLR,,0.28,WeatherDisplay:10.37,2013-04-13 23:34:00,
2013-04-13 16:39:00,38.5,25.8,29.78,West,275,26.5,26.7,60,0.00,CLR,,0.28,WeatherDisplay:10.37,2013-04-13 23:39:00,
2013-04-13 16:45:00,38.3,26.0,29.79,West,275,20.0,20.0,61,0.00,CLR,,0.28,WeatherDisplay:10.37,2013-04-13 23:45:00,
2013-04-13 16:50:00,37.9,25.2,29.79,WNW,287,19.6,19.6,60,0.00,CLR,,0.28,WeatherDisplay:10.37,2013-04-13 23:50:00,
2013-04-13 16:55:00,37.7,25.1,29.80,West,277,28.8,28.8,60,0.00,CLR,,0.28,WeatherDisplay:10.37,2013-04-13 23:55:00,
2013-04-13 17:00:00,37.4,25.9,29.80,WNW,303,28.8,28.8,63,0.00,CLR,,0.28,WeatherDisplay:10.37,2013-04-14 00:00:00,
2013-04-13 17:05:00,37.3,25.5,29.81,WNW,290,34.5,34.5,62,0.00,BKN,,0.28,WeatherDisplay:10.37,2013-04-14 00:05:00,
2013-04-13 17:10:00,37.1,25.3,29.81,WNW,296,19.6,19.6,62,0.00,BKN,,0.28,WeatherDisplay:10.37,2013-04-14 00:10:00,
2013-04-13 17:15:00,36.9,25.5,29.82,WNW,292,26.5,26.5,63,0.00,BKN,,0.28,WeatherDisplay:10.37,2013-04-14 00:15:00,
2013-04-13 17:20:00,36.7,24.9,29.81,West,281,27.6,27.6,62,0.00,BKN,,0.28,WeatherDisplay:10.37,2013-04-14 00:20:00,
2013-04-13 17:25:00,36.7,25.7,29.81,WNW,283,21.9,21.9,64,0.00,BKN,,0.28,WeatherDisplay:10.37,2013-04-14 00:25:00,
2013-04-13 17:30:00,36.6,25.6,29.81,WNW,295,19.6,19.6,64,0.00,BKN,,0.28,WeatherDisplay:10.37,2013-04-14 00:30:00,
2013-04-13 17:35:00,36.6,25.9,29.81,West,281,23.0,23.0,65,0.00,BKN,,0.28,WeatherDisplay:10.37,2013-04-14 00:35:00,
2013-04-13 17:40:00,36.6,26.3,29.81,West,276,31.1,31.1,66,0.00,BKN,,0.28,WeatherDisplay:10.37,2013-04-14 00:40:00,
2013-04-13 17:45:00,36.6,25.9,29.81,WSW,257,32.2,32.2,65,0.00,BKN,,0.28,WeatherDisplay:10.37,2013-04-14 00:45:00,
2013-04-13 17:50:00,36.5,26.6,29.82,WNW,302,24.2,24.2,67,0.00,BKN,,0.28,WeatherDisplay:10.37,2013-04-14 00:50:00,
2013-04-13 17:55:00,36.3,26.7,29.82,West,280,25.3,25.3,68,0.00,BKN,,0.28,WeatherDisplay:10.37,2013-04-14 00:55:00,
2013-04-13 18:00:00,36.2,26.6,29.82,WNW,284,33.0,33.0,68,0.00,BKN,,0.28,WeatherDisplay:10.37,2013-04-14 01:00:00,
2013-04-13 18:05:00,36.4,27.2,29.83,WNW,290,25.3,25.3,69,0.00,BKN,,0.28,WeatherDisplay:10.37,2013-04-14 01:05:00,
2013-04-13 18:10:00,35.8,27.0,29.83,West,271,31.0,31.0,70,0.00,BKN,,0.28,WeatherDisplay:10.37,2013-04-14 01:10:00,
2013-04-13 18:15:00,35.5,27.0,29.83,West,273,26.5,26.5,71,0.00,BKN,,0.28,WeatherDisplay:10.37,2013-04-14 01:15:00,
2013-04-13 18:20:00,35.3,26.5,29.82,West,280,34.5,34.5,70,0.00,BKN,,0.28,WeatherDisplay:10.37,2013-04-14 01:20:00,
2013-04-13 18:25:00,35.2,26.7,29.82,West,267,29.9,29.9,71,0.00,BKN,,0.28,WeatherDisplay:10.37,2013-04-14 01:25:00,
2013-04-13 18:30:00,35.1,26.6,29.82,West,281,26.5,26.5,71,0.00,BKN,,0.28,WeatherDisplay:10.37,2013-04-14 01:30:00,
2013-04-13 18:35:00,35.2,26.7,29.82,West,281,29.9,29.9,71,0.00,BKN,,0.28,WeatherDisplay:10.37,2013-04-14 01:35:00,
2013-04-13 18:40:00,35.2,26.4,29.82,West,280,24.2,24.2,70,0.00,BKN,,0.28,WeatherDisplay:10.37,2013-04-14 01:40:00,
2013-04-13 18:45:00,35.3,26.1,29.82,West,279,26.5,26.5,69,0.00,BKN,,0.28,WeatherDisplay:10.37,2013-04-14 01:45:00,
2013-04-13 18:50:00,35.4,26.2,29.82,West,277,25.3,25.3,69,0.00,BKN,,0.28,WeatherDisplay:10.37,2013-04-14 01:50:00,
2013-04-13 18:55:00,35.7,26.5,29.82,West,271,24.0,24.0,69,0.00,BKN,,0.28,WeatherDisplay:10.37,2013-04-14 01:55:00,
2013-04-13 19:00:00,35.7,26.2,29.82,West,279,25.3,25.3,68,0.00,BKN,,0.28,WeatherDisplay:10.37,2013-04-14 02:00:00,
2013-04-13 19:05:00,35.7,25.8,29.82,West,275,27.6,27.6,67,0.00,BKN,,0.28,WeatherDisplay:10.37,2013-04-14 02:05:00,
2013-04-13 19:10:00,35.7,25.8,29.83,West,273,21.9,21.9,67,0.00,BKN,,0.28,WeatherDisplay:10.37,2013-04-14 02:10:00,
2013-04-13 19:15:00,35.5,25.6,29.82,West,261,28.8,28.8,67,0.00,BKN,,0.28,WeatherDisplay:10.37,2013-04-14 02:15:00,
2013-04-13 19:20:00,35.5,26.0,29.83,WNW,284,28.8,28.8,68,0.00,BKN,,0.28,WeatherDisplay:10.37,2013-04-14 02:20:00,
2013-04-13 19:25:00,35.4,26.2,29.84,WNW,283,31.1,31.1,69,0.00,BKN,,0.28,WeatherDisplay:10.37,2013-04-14 02:25:00,
2013-04-13 19:30:00,35.1,26.3,29.84,WNW,283,27.6,27.6,70,0.00,BKN,,0.28,WeatherDisplay:10.37,2013-04-14 02:30:00,
2013-04-13 19:35:00,34.9,26.1,29.85,West,267,27.6,27.6,70,0.00,BKN,,0.28,WeatherDisplay:10.37,2013-04-14 02:35:00,
2013-04-13 19:40:00,34.6,26.2,29.85,West,265,28.8,28.8,71,0.00,BKN,,0.28,WeatherDisplay:10.37,2013-04-14 02:40:00,
2013-04-13 19:45:00,34.4,26.3,29.85,West,276,27.6,27.6,72,0.00,BKN,,0.28,WeatherDisplay:10.37,2013-04-14 02:45:00,
2013-04-13 19:50:00,34.4,26.6,29.85,West,273,25.3,25.3,73,0.00,BKN,,0.28,WeatherDisplay:10.37,2013-04-14 02:50:00,
2013-04-13 19:55:00,34.1,26.7,29.86,West,259,28.0,28.0,74,0.00,BKN,,0.28,WeatherDisplay:10.37,2013-04-14 02:55:00,
2013-04-13 20:00:00,34.2,26.4,29.85,West,279,28.8,28.8,73,0.00,BKN,,0.28,WeatherDisplay:10.37,2013-04-14 03:00:00,
2013-04-13 20:05:00,34.2,26.4,29.85,West,270,26.5,26.5,73,0.00,CLR,,0.28,WeatherDisplay:10.37,2013-04-14 03:05:00,
2013-04-13 20:10:00,34.0,26.6,29.86,West,275,25.3,25.3,74,0.00,CLR,,0.28,WeatherDisplay:10.37,2013-04-14 03:10:00,
2013-04-13 20:15:00,33.9,26.8,29.86,West,276,26.0,26.0,75,0.00,CLR,,0.28,WeatherDisplay:10.37,2013-04-14 03:15:00,
2013-04-13 20:20:00,33.9,26.5,29.86,West,274,24.2,24.2,74,0.00,CLR,,0.28,WeatherDisplay:10.37,2013-04-14 03:20:00,
2013-04-13 20:25:00,33.8,26.7,29.86,West,281,23.0,23.0,75,0.00,CLR,,0.28,WeatherDisplay:10.37,2013-04-14 03:25:00,
2013-04-13 20:30:00,33.9,26.5,29.86,West,280,23.0,23.0,74,0.00,CLR,,0.28,WeatherDisplay:10.37,2013-04-14 03:30:00,
2013-04-13 20:35:00,34.1,26.3,29.87,WNW,283,26.5,26.5,73,0.00,CLR,,0.28,WeatherDisplay:10.37,2013-04-14 03:35:00,
2013-04-13 20:40:00,34.1,26.3,29.87,WNW,286,21.9,21.9,73,0.00,CLR,,0.28,WeatherDisplay:10.37,2013-04-14 03:40:00,
2013-04-13 20:46:00,34.0,26.6,29.87,West,274,23.0,23.0,74,0.00,CLR,,0.28,WeatherDisplay:10.37,2013-04-14 03:46:00,
2013-04-13 20:51:00,34.1,26.7,29.87,West,262,20.7,20.7,74,0.00,CLR,,0.28,WeatherDisplay:10.37,2013-04-14 03:51:00,
2013-04-13 20:56:00,34.1,26.3,29.87,West,269,21.9,21.9,73,0.00,CLR,,0.28,WeatherDisplay:10.37,2013-04-14 03:56:00,
2013-04-13 21:00:00,34.0,26.3,29.87,WNW,284,23.0,23.0,73,0.00,CLR,,0.28,WeatherDisplay:10.37,2013-04-14 04:00:00,
2013-04-13 21:05:00,34.1,26.0,29.87,WNW,282,26.5,26.5,72,0.00,CLR,,0.28,WeatherDisplay:10.37,2013-04-14 04:05:00,
2013-04-13 21:10:00,34.0,26.3,29.87,West,273,23.0,23.0,73,0.00,CLR,,0.28,WeatherDisplay:10.37,2013-04-14 04:10:00,
2013-04-13 21:15:00,34.0,26.3,29.87,WNW,284,20.7,20.7,73,0.00,CLR,,0.28,WeatherDisplay:10.37,2013-04-14 04:15:00,
2013-04-13 21:20:00,33.8,26.1,29.88,WNW,283,19.6,19.6,73,0.00,CLR,,0.28,WeatherDisplay:10.37,2013-04-14 04:20:00,
2013-04-13 21:25:00,33.8,26.1,29.88,West,276,21.9,21.9,73,0.00,CLR,,0.28,WeatherDisplay:10.37,2013-04-14 04:25:00,
2013-04-13 21:30:00,33.9,26.2,29.88,WNW,287,23.0,23.0,73,0.00,CLR,,0.28,WeatherDisplay:10.37,2013-04-14 04:30:00,
2013-04-13 21:35:00,33.8,26.1,29.88,West,273,22.0,22.0,73,0.00,CLR,,0.28,WeatherDisplay:10.37,2013-04-14 04:35:00,
2013-04-13 21:40:00,33.9,25.8,29.88,West,275,24.2,24.2,72,0.00,CLR,,0.28,WeatherDisplay:10.37,2013-04-14 04:40:00,
2013-04-13 21:45:00,34.2,25.8,29.88,West,279,21.9,21.9,71,0.00,CLR,,0.28,WeatherDisplay:10.37,2013-04-14 04:45:00,
2013-04-13 21:50:00,34.1,25.7,29.89,West,272,18.4,18.4,71,0.00,CLR,,0.28,WeatherDisplay:10.37,2013-04-14 04:50:00,
2013-04-13 21:55:00,34.0,25.9,29.89,WNW,287,20.7,20.7,72,0.00,CLR,,0.28,WeatherDisplay:10.37,2013-04-14 04:55:00,
2013-04-13 22:00:00,33.9,25.8,29.88,West,275,19.6,19.6,72,0.00,CLR,,0.28,WeatherDisplay:10.37,2013-04-14 05:00:00,
2013-04-13 22:05:00,34.0,25.9,29.88,West,279,19.6,19.6,72,0.00,BKN,,0.28,WeatherDisplay:10.37,2013-04-14 05:05:00,
2013-04-13 22:10:00,34.0,25.9,29.88,West,278,15.0,15.0,72,0.00,BKN,,0.28,WeatherDisplay:10.37,2013-04-14 05:10:00,
2013-04-13 22:15:00,34.1,26.0,29.88,West,278,22.0,22.0,72,0.00,BKN,,0.28,WeatherDisplay:10.37,2013-04-14 05:15:00,
2013-04-13 22:20:00,34.1,25.7,29.88,West,281,26.5,26.5,71,0.00,BKN,,0.28,WeatherDisplay:10.37,2013-04-14 05:20:00,
2013-04-13 22:25:00,34.3,25.9,29.88,West,276,29.9,29.9,71,0.00,BKN,,0.28,WeatherDisplay:10.37,2013-04-14 05:25:00,
2013-04-13 22:30:00,34.2,26.1,29.88,West,281,26.5,26.5,72,0.00,BKN,,0.28,WeatherDisplay:10.37,2013-04-14 05:30:00,
2013-04-13 22:35:00,33.9,26.2,29.88,West,275,21.9,21.9,73,0.00,BKN,,0.28,WeatherDisplay:10.37,2013-04-14 05:35:00,
2013-04-13 22:40:00,33.9,26.2,29.89,West,261,19.6,19.6,73,0.00,BKN,,0.28,WeatherDisplay:10.37,2013-04-14 05:40:00,
2013-04-13 22:45:00,33.6,26.2,29.89,West,279,21.0,21.0,74,0.00,BKN,,0.28,WeatherDisplay:10.37,2013-04-14 05:45:00,
2013-04-13 22:50:00,33.6,26.2,29.89,WNW,282,19.6,19.6,74,0.00,BKN,,0.28,WeatherDisplay:10.37,2013-04-14 05:50:00,
2013-04-13 22:55:00,33.5,26.1,29.89,West,275,21.9,21.9,74,0.00,BKN,,0.28,WeatherDisplay:10.37,2013-04-14 05:55:00,
2013-04-13 23:00:00,33.7,26.3,29.89,West,272,26.5,26.5,74,0.00,BKN,,0.28,WeatherDisplay:10.37,2013-04-14 06:00:00,
2013-04-13 23:05:00,33.7,26.0,29.89,West,273,19.6,19.6,73,0.00,OVC,,0.28,WeatherDisplay:10.37,2013-04-14 06:05:00,
2013-04-13 23:10:00,33.6,25.9,29.90,West,272,25.3,25.3,73,0.00,OVC,,0.28,WeatherDisplay:10.37,2013-04-14 06:10:00,
2013-04-13 23:15:00,33.7,26.0,29.90,West,273,20.7,20.7,73,0.00,OVC,,0.28,WeatherDisplay:10.37,2013-04-14 06:15:00,
2013-04-13 23:20:00,33.8,26.1,29.90,West,264,19.6,19.6,73,0.00,OVC,,0.28,WeatherDisplay:10.37,2013-04-14 06:20:00,
2013-04-13 23:25:00,33.8,26.1,29.90,West,266,23.0,23.0,73,0.00,OVC,,0.28,WeatherDisplay:10.37,2013-04-14 06:25:00,
2013-04-13 23:30:00,33.8,26.1,29.90,West,277,21.9,21.9,73,0.00,OVC,,0.28,WeatherDisplay:10.37,2013-04-14 06:30:00,
2013-04-13 23:35:00,33.7,26.3,29.90,West,280,16.1,16.1,74,0.00,OVC,,0.28,WeatherDisplay:10.37,2013-04-14 06:35:00,
2013-04-13 23:40:00,33.7,26.3,29.90,West,279,19.6,19.6,74,0.00,OVC,,0.28,WeatherDisplay:10.37,2013-04-14 06:40:00,
2013-04-13 23:45:00,33.8,26.1,29.91,West,278,20.7,20.7,73,0.00,OVC,,0.28,WeatherDisplay:10.37,2013-04-14 06:45:00,
2013-04-13 23:50:00,33.8,25.7,29.91,West,281,21.9,21.9,72,0.00,OVC,,0.28,WeatherDisplay:10.37,2013-04-14 06:50:00,
2013-04-13 23:55:00,33.9,25.8,29.91,West,271,19.6,19.6,72,0.00,OVC,,0.28,WeatherDisplay:10.37,2013-04-14 06:55:00,